(°C)
-1°
-1°
(°C)
-1°
-3°
-3°
-4°
-4°
OSO
NO
NNO
O
O
O
OSO
(km/h)
3-8
2-7
2-6
3-7
3-5
3-5
3-8
(mm)
0
0
0
0
0
0
0
(%)
0
0
0
0
0
0
0

Élévation du soleil

/ 4.6°
sun-icon
UV 2
07:45
17:08
Dernier croissant (282°)
01:36
11:39

METAR pour Innsbruck (LOWI)

Heure Conditions Température/
Point de rosée
Vent Visibilité Météo Nuages Pression Changement Brut
VFR 6°C / -1°C 140º variable 020º to 170º 3kt >10km - Clouds and Visibility OK 1027 No Significant change LOWI 261450Z 14003KT 020V170 CAVOK 06/M01 Q1027 NOSIG
VFR 7°C / -2°C 170º 3kt >10km - Clouds and Visibility OK 1027 No Significant change LOWI 261420Z 17003KT CAVOK 07/M02 Q1027 NOSIG
VFR 7°C / -3°C variable 2kt >10km - Clouds and Visibility OK 1028 No Significant change LOWI 261350Z VRB02KT CAVOK 07/M03 Q1028 NOSIG
VFR 6°C / -3°C 170º 3kt >10km - Clouds and Visibility OK 1028 No Significant change LOWI 261320Z 17003KT CAVOK 06/M03 Q1028 NOSIG
VFR 6°C / -2°C variable 2kt >10km - Clouds and Visibility OK 1028 No Significant change LOWI 261250Z VRB02KT CAVOK 06/M02 Q1028 NOSIG
VFR 5°C / -3°C 160º variable 130º to 190º 3kt >10km - Clouds and Visibility OK 1028 No Significant change LOWI 261220Z 16003KT 130V190 CAVOK 05/M03 Q1028 NOSIG
VFR 4°C / -3°C variable 2kt >10km - Clouds and Visibility OK 1029 No Significant change LOWI 261150Z VRB02KT CAVOK 04/M03 Q1029 NOSIG
VFR 3°C / -3°C 210º variable 160º to 240º 3kt >10km - Clouds and Visibility OK 1029 No Significant change LOWI 261120Z 21003KT 160V240 CAVOK 03/M03 Q1029 NOSIG
VFR 2°C / -3°C variable 2kt >10km - Clouds and Visibility OK 1030 No Significant change LOWI 261050Z VRB02KT CAVOK 02/M03 Q1030 NOSIG
VFR 2°C / -3°C variable 2kt >10km - Clouds and Visibility OK 1030 No Significant change LOWI 261020Z VRB02KT CAVOK 02/M03 Q1030 NOSIG
VFR 1°C / -3°C variable 2kt >10km - Clouds and Visibility OK 1030 No Significant change LOWI 260950Z VRB02KT CAVOK 01/M03 Q1030 NOSIG
VFR 0°C / -3°C variable 1kt >10km - Clouds and Visibility OK 1031 No Significant change LOWI 260920Z VRB01KT CAVOK 00/M03 Q1031 NOSIG
VFR -1°C / -4°C 170º 2kt >10km - Clouds and Visibility OK 1031 No Significant change LOWI 260850Z 17002KT CAVOK M01/M04 Q1031 NOSIG
VFR -2°C / -4°C variable 1kt >10km - Clouds and Visibility OK 1031 No Significant change LOWI 260820Z VRB01KT CAVOK M02/M04 Q1031 NOSIG
VFR -4°C / -5°C 90º 4kt >10km - Clouds and Visibility OK 1031 No Significant change LOWI 260750Z 09004KT CAVOK M04/M05 Q1031 NOSIG
VFR -4°C / -5°C 110º variable 070º to 140º 3kt >10km - Clouds and Visibility OK 1030 No Significant change LOWI 260720Z 11003KT 070V140 CAVOK M04/M05 Q1030 NOSIG
VFR -5°C / -6°C variable 1kt >10km - Clouds and Visibility OK 1030 No Significant change LOWI 260650Z VRB01KT CAVOK M05/M06 Q1030 NOSIG
VFR -5°C / -6°C variable 1kt >10km - Clouds and Visibility OK 1030 No Significant change LOWI 260620Z VRB01KT CAVOK M05/M06 Q1030 NOSIG
VFR -5°C / -6°C variable 2kt >10km - Clouds and Visibility OK 1030 No Significant change LOWI 260550Z VRB02KT CAVOK M05/M06 Q1030 NOSIG
VFR -5°C / -6°C variable 2kt >10km - Clouds and Visibility OK 1030 No Significant change LOWI 260520Z VRB02KT CAVOK M05/M06 Q1030 NOSIG
VFR -5°C / -6°C variable 1kt >10km - Clouds and Visibility OK 1030 No Significant change LOWI 260450Z VRB01KT CAVOK M05/M06 Q1030 NOSIG
VFR -4°C / -5°C 250º 3kt >10km - Clear 1030 - LOWI 260420Z AUTO 25003KT 9999 NCD M04/M05 Q1030
VFR -5°C / -6°C variable 2kt >10km - Clear 1030 - LOWI 260350Z AUTO VRB02KT 9999 NCD M05/M06 Q1030
VFR -4°C / -5°C variable 1kt >10km - Clear 1031 - LOWI 260320Z AUTO VRB01KT 9999 NCD M04/M05 Q1031

VFR

6°C / -1°C

[Plus]
Vent 140º variable 020º to 170º 3kt
Visibilité >10km
Météo -
Nuages Clouds and Visibility OK
Pression 1027
Changement No Significant change
Brut LOWI 261450Z 14003KT 020V170 CAVOK 06/M01 Q1027 NOSIG

VFR

7°C / -2°C

[Plus]
Vent 170º 3kt
Visibilité >10km
Météo -
Nuages Clouds and Visibility OK
Pression 1027
Changement No Significant change
Brut LOWI 261420Z 17003KT CAVOK 07/M02 Q1027 NOSIG

VFR

7°C / -3°C

[Plus]
Vent variable 2kt
Visibilité >10km
Météo -
Nuages Clouds and Visibility OK
Pression 1028
Changement No Significant change
Brut LOWI 261350Z VRB02KT CAVOK 07/M03 Q1028 NOSIG

VFR

6°C / -3°C

[Plus]
Vent 170º 3kt
Visibilité >10km
Météo -
Nuages Clouds and Visibility OK
Pression 1028
Changement No Significant change
Brut LOWI 261320Z 17003KT CAVOK 06/M03 Q1028 NOSIG

VFR

6°C / -2°C

[Plus]
Vent variable 2kt
Visibilité >10km
Météo -
Nuages Clouds and Visibility OK
Pression 1028
Changement No Significant change
Brut LOWI 261250Z VRB02KT CAVOK 06/M02 Q1028 NOSIG

VFR

5°C / -3°C

[Plus]
Vent 160º variable 130º to 190º 3kt
Visibilité >10km
Météo -
Nuages Clouds and Visibility OK
Pression 1028
Changement No Significant change
Brut LOWI 261220Z 16003KT 130V190 CAVOK 05/M03 Q1028 NOSIG

VFR

4°C / -3°C

[Plus]
Vent variable 2kt
Visibilité >10km
Météo -
Nuages Clouds and Visibility OK
Pression 1029
Changement No Significant change
Brut LOWI 261150Z VRB02KT CAVOK 04/M03 Q1029 NOSIG

VFR

3°C / -3°C

[Plus]
Vent 210º variable 160º to 240º 3kt
Visibilité >10km
Météo -
Nuages Clouds and Visibility OK
Pression 1029
Changement No Significant change
Brut LOWI 261120Z 21003KT 160V240 CAVOK 03/M03 Q1029 NOSIG

VFR

2°C / -3°C

[Plus]
Vent variable 2kt
Visibilité >10km
Météo -
Nuages Clouds and Visibility OK
Pression 1030
Changement No Significant change
Brut LOWI 261050Z VRB02KT CAVOK 02/M03 Q1030 NOSIG

VFR

2°C / -3°C

[Plus]
Vent variable 2kt
Visibilité >10km
Météo -
Nuages Clouds and Visibility OK
Pression 1030
Changement No Significant change
Brut LOWI 261020Z VRB02KT CAVOK 02/M03 Q1030 NOSIG

VFR

1°C / -3°C

[Plus]
Vent variable 2kt
Visibilité >10km
Météo -
Nuages Clouds and Visibility OK
Pression 1030
Changement No Significant change
Brut LOWI 260950Z VRB02KT CAVOK 01/M03 Q1030 NOSIG

VFR

0°C / -3°C

[Plus]
Vent variable 1kt
Visibilité >10km
Météo -
Nuages Clouds and Visibility OK
Pression 1031
Changement No Significant change
Brut LOWI 260920Z VRB01KT CAVOK 00/M03 Q1031 NOSIG

VFR

-1°C / -4°C

[Plus]
Vent 170º 2kt
Visibilité >10km
Météo -
Nuages Clouds and Visibility OK
Pression 1031
Changement No Significant change
Brut LOWI 260850Z 17002KT CAVOK M01/M04 Q1031 NOSIG

VFR

-2°C / -4°C

[Plus]
Vent variable 1kt
Visibilité >10km
Météo -
Nuages Clouds and Visibility OK
Pression 1031
Changement No Significant change
Brut LOWI 260820Z VRB01KT CAVOK M02/M04 Q1031 NOSIG

VFR

-4°C / -5°C

[Plus]
Vent 90º 4kt
Visibilité >10km
Météo -
Nuages Clouds and Visibility OK
Pression 1031
Changement No Significant change
Brut LOWI 260750Z 09004KT CAVOK M04/M05 Q1031 NOSIG

VFR

-4°C / -5°C

[Plus]
Vent 110º variable 070º to 140º 3kt
Visibilité >10km
Météo -
Nuages Clouds and Visibility OK
Pression 1030
Changement No Significant change
Brut LOWI 260720Z 11003KT 070V140 CAVOK M04/M05 Q1030 NOSIG

VFR

-5°C / -6°C

[Plus]
Vent variable 1kt
Visibilité >10km
Météo -
Nuages Clouds and Visibility OK
Pression 1030
Changement No Significant change
Brut LOWI 260650Z VRB01KT CAVOK M05/M06 Q1030 NOSIG

VFR

-5°C / -6°C

[Plus]
Vent variable 1kt
Visibilité >10km
Météo -
Nuages Clouds and Visibility OK
Pression 1030
Changement No Significant change
Brut LOWI 260620Z VRB01KT CAVOK M05/M06 Q1030 NOSIG

VFR

-5°C / -6°C

[Plus]
Vent variable 2kt
Visibilité >10km
Météo -
Nuages Clouds and Visibility OK
Pression 1030
Changement No Significant change
Brut LOWI 260550Z VRB02KT CAVOK M05/M06 Q1030 NOSIG

VFR

-5°C / -6°C

[Plus]
Vent variable 2kt
Visibilité >10km
Météo -
Nuages Clouds and Visibility OK
Pression 1030
Changement No Significant change
Brut LOWI 260520Z VRB02KT CAVOK M05/M06 Q1030 NOSIG

VFR

-5°C / -6°C

[Plus]
Vent variable 1kt
Visibilité >10km
Météo -
Nuages Clouds and Visibility OK
Pression 1030
Changement No Significant change
Brut LOWI 260450Z VRB01KT CAVOK M05/M06 Q1030 NOSIG

VFR

-4°C / -5°C

[Plus]
Vent 250º 3kt
Visibilité >10km
Météo -
Nuages Clear
Pression 1030
Changement -
Brut LOWI 260420Z AUTO 25003KT 9999 NCD M04/M05 Q1030

VFR

-5°C / -6°C

[Plus]
Vent variable 2kt
Visibilité >10km
Météo -
Nuages Clear
Pression 1030
Changement -
Brut LOWI 260350Z AUTO VRB02KT 9999 NCD M05/M06 Q1030

VFR

-4°C / -5°C

[Plus]
Vent variable 1kt
Visibilité >10km
Météo -
Nuages Clear
Pression 1031
Changement -
Brut LOWI 260320Z AUTO VRB01KT 9999 NCD M04/M05 Q1031

TAF pour Innsbruck (LOWI)

From till


Maximum Temperature 4ºC on . Minimum Temperature -5ºC on .
From till Wind 270º 3kt. Visibility 10km or more. Nil Significant Cloud.

Brut: TAF LOWI 261115Z 2612/2712 27003KT CAVOK TX04/2614Z TNM05/2706Z

Radar pour Innsbruck

Bruine
Légère
Modéré
Fort
Très fort
Grêle

Le marqueur est placé sur Innsbruck. Cette animation montre le Radar des précipitations pour les dernières heures, ainsi qu'une 2h prévision. La bruine ou les légères chutes de neiges peuvent ne pas être détectées par le radar. L'intensité des précipitations est visible avec un code couleur allant du bleu clair au violet foncé et orange.
Copyright 2022 Deutscher Wetterdienst / meteoblue.

Les images satellites et les pluies actuelles pour Innsbruck, Autriche

Le marqueur est placé sur Innsbruck. [Plus]

L'image satellite en temps réel combine la lumière visible pendant la journée et le rayonnement infrarouge pendant la nuit. La nuit, l'image n'est pas sombre car le rayonnement infrarouge permet de détecter les différences de température. Malheureusement, les nuages bas et le brouillard sont difficiles à distinguer des températures au sol et peuvent donc être presque invisibles pendant la nuit. Les images des satellites Météosat pour l'Europe sont mises à jour en temps réel toutes les 5 minutes. Les images GOES-16/GOES-17 (Amérique du Nord et du Sud) et Himawari (Asie) sont mises à jour toutes les 10 minutes.

La précipitation est estimée à partir des radars et des satellites. Les calculs des précipitations pour la nuit par le satellite sont moins précises que pour le jour. Les croix oranges marquent les lieux où la foudre a été détectée (sur Europe).

Copyright 2022 EUMETSAT / meteoblue. Données de foudre fournies par nowcast.